• Processing (Info)

  • MPEC 2014-G31 : 2014 GQ17

    The following Minor Planet Electronic Circular may be linked-to from your own Web pages, but must not otherwise be redistributed electronically.

    A form allowing access to any MPEC is at the bottom of this page.


    Read MPEC 2014-G30 Read MPEC 2014-G32


    M.P.E.C. 2014-G31                                Issued 2014 Apr. 6, 14:45 UT
    
         The Minor Planet Electronic Circulars contain information on unusual
             minor planets and routine data on comets.  They are published
       on behalf of Commission 20 of the International Astronomical Union by the
              Minor Planet Center, Smithsonian Astrophysical Observatory,
                              Cambridge, MA 02138, U.S.A.
    
                 Prepared using the Tamkin Foundation Computer Network
    
                                  MPC@CFA.HARVARD.EDU
                URL https://www.minorplanetcenter.net/    ISSN 1523-6714
    
                                       2014 GQ17
    
    Observations:
         K14G17Q* C2014 04 05.27269 14 01 31.63 +00 59 41.4          17.9 VqEG031703
         K14G17Q  C2014 04 05.27668 14 01 09.85 +01 00 36.8          17.8 VqEG031703
         K14G17Q  C2014 04 05.28067 14 00 47.47 +01 01 34.0                qEG031703
         K14G17Q  C2014 04 05.29263 13 59 40.95 +01 04 24.2                qEG031703
         K14G17Q  C2014 04 05.33041 13 56 12.96 +01 13 09.8          16.9 VqEG031703
         K14G17Q  C2014 04 05.33068 13 56 11.50 +01 13 14.0          17.1 VqEG031703
         K14G17Q  C2014 04 05.33095 13 56 10.05 +01 13 16.9          16.9 VqEG031703
         K14G17Q  C2014 04 05.33121 13 56 08.64 +01 13 20.6          16.7 VqEG031703
         K14G17Q  C2014 04 05.33148 13 56 07.13 +01 13 24.6          16.8 VqEG031703
         K14G17Q  C2014 04 05.39107 13 50 48.00 +01 26 44.4          16.8 VqEG031703
         K14G17Q  C2014 04 05.39134 13 50 46.65 +01 26 48.4          16.4 VqEG031703
         K14G17Q  C2014 04 05.44793 13 45 57.07 +01 38 54.8          16.6 VqEG031703
         K14G17Q  C2014 04 05.44820 13 45 55.73 +01 38 57.4          16.5 VqEG031703
         K14G17Q  C2014 04 05.44846 13 45 54.47 +01 39 01.0          16.7 VqEG031703
         K14G17Q  C2014 04 05.44873 13 45 53.23 +01 39 03.6          17.7 VqEG031703
         K14G17Q  C2014 04 05.44900 13 45 51.69 +01 39 08.0          16.8 VqEG031703
         K14G17Q KC2014 04 05.87969 13 18 15.52 +02 54 41.8          17.5 VqEG031958
         K14G17Q KC2014 04 05.88181 13 18 07.51 +02 55 02.6          17.6 VqEG031958
         K14G17Q KC2014 04 05.88394 13 17 59.48 +02 55 22.9          17.5 VqEG031958
         K14G17Q KC2014 04 05.88606 13 17 51.46 +02 55 43.5          17.3 VqEG031958
         K14G17Q KC2014 04 05.88884 13 17 40.88 +02 56 10.2          17.4 VqEG031958
         K14G17Q KC2014 04 05.89165 13 17 30.26 +02 56 37.1          17.4 VqEG031958
         K14G17Q KC2014 04 05.89378 13 17 22.26 +02 56 57.4          17.3 VqEG031958
         K14G17Q KC2014 04 05.89591 13 17 14.23 +02 57 18.3          17.4 VqEG031958
         K14G17Q KC2014 04 05.89803 13 17 06.19 +02 57 38.3          17.6 VqEG031958
         K14G17Q KC2014 04 06.03113 13 08 31.58 +03 16 00.8          17.1 RcEG031585
         K14G17Q KC2014 04 06.03152 13 08 30.23 +03 16 03.4          17.1 RcEG031585
         K14G17Q KC2014 04 06.03191 13 08 28.82 +03 16 07.3          17.3 RcEG031585
         K14G17Q KC2014 04 06.03246 13 08 26.92 +03 16 12.0          17.1 RcEG031585
         K14G17Q KC2014 04 06.03287 13 08 25.51 +03 16 15.4          17.0 RcEG031585
         K14G17Q KC2014 04 06.03322 13 08 24.34 +03 16 18.2          17.2 RcEG031585
         K14G17Q  C2014 04 06.24742 12 58 26.14 +03 49 14.1          17.5 RoEG031926
         K14G17Q  C2014 04 06.24795 12 58 24.39 +03 49 18.2          17.4 RoEG031926
         K14G17Q  C2014 04 06.24851 12 58 22.65 +03 49 22.3          17.4 RoEG031926
         K14G17Q KC2014 04 06.29025 12 55 48.49 +03 52 25.1          17.7 VqEG031H21
         K14G17Q KC2014 04 06.29219 12 55 42.47 +03 52 38.7          17.7 VqEG031H21
         K14G17Q KC2014 04 06.29411 12 55 36.53 +03 52 52.3          17.6 VqEG031H21
         K14G17Q KC2014 04 06.29602 12 55 30.65 +03 53 05.8          17.7 VqEG031H21
         K14G17Q KC2014 04 06.29792 12 55 24.79 +03 53 19.1          17.6 VqEG031H21
         K14G17Q  C2014 04 06.33978 12 53 35.72 +04 00 13.2          17.8 RoEG031926
         K14G17Q  C2014 04 06.34034 12 53 34.03 +04 00 17.2          17.6 RoEG031926
         K14G17Q  C2014 04 06.34088 12 53 32.38 +04 00 20.9          17.5 RoEG031926
         K14G17Q  C2014 04 06.34846 12 53 09.27 +04 00 57.2          17.0 VqEG031G96
         K14G17Q  C2014 04 06.34873 12 53 08.54 +04 00 59.0          17.6 VqEG031G96
         K14G17Q  C2014 04 06.34899 12 53 07.72 +04 01 00.7          17.4 VqEG031G96
         K14G17Q  C2014 04 06.34926 12 53 06.92 +04 01 02.6          17.6 VqEG031G96
         K14G17Q  C2014 04 06.46397 12 47 37.16 +04 13 27.7          17.3 RoEG031926
         K14G17Q  C2014 04 06.46449 12 47 35.75 +04 13 30.9          17.3 RoEG031926
         K14G17Q  C2014 04 06.46503 12 47 34.30 +04 13 34.3          17.3 RoEG031926
    
    Observer details:
    585 Kyiv comet station.  Observer A. Baransky.  0.7-m f/4 reflector + CCD.
    703 Catalina Sky Survey.  Observers R. E Hill, R. J. Sanders.  Measurers
        E. J. Christensen, A. R. Gibbs, A. D. Grauer, R. E. Hill, J. A. Johnson,
        R. A. Kowalski, S. M. Larson, F. C. Shelly.  0.68-m Schmidt + CCD.
    926 Tenagra II Observatory.  Observers M. Schwartz, P. R. Holvorcem.  0.81-m
        f/7 Ritchey-Chretien + CCD.
    958 Observatoire de Dax.  Observers P. Dupouy, J. B. de Vanssay.  Measurer
        P. Dupouy.  0.43-m f/2.7 reflector + CCD.
    G96 Mt. Lemmon Survey.  Observer A. D. Grauer.  Measurers E. J. Christensen,
        A. R. Gibbs, A. D. Grauer, R. E. Hill, J. A. Johnson, R. A. Kowalski,
        S. M. Larson, F. C. Shelly.  1.5-m reflector + CCD.
    H21 Astronomical Research Observatory, Westfield.  Observer R. Holmes.
        Measurers L. Buzzi, S. Foglia, T. Vorobjov, T. Linder, H. Devore.  0.61-m
        f/4.0 astrograph + CCD.
    
    Orbital elements:
    2014 GQ17                                                Earth MOID = 0.0001 AU
    Epoch 2014 May 23.0 TT = JDT 2456800.5                  MPC
    M 186.12524              (2000.0)            P               Q
    n   1.24846280     Peri.  331.68836     +0.64434143     -0.76473636
    a   0.8541857      Node    78.19528     +0.70193343     +0.59061436
    e   0.2469035      Incl.    0.09124     +0.30350221     +0.25759073
    P   0.79           H   27.2           G   0.15           U   6
    Residuals in seconds of arc
    140405 703 (6.2-  0.5+)   140405 958  0.3+  0.0     140406 H21  0.5+  0.4-
    140405 703  1.2+  1.1-    140405 958  0.8+  0.2-    140406 H21  0.3+  0.5-
    140405 703  0.7-  0.7-    140405 958  0.8+  0.0     140406 H21  0.3+  0.4-
    140405 703  0.8-  0.2+    140405 958  0.2-  0.1-    140406 H21  0.6+  0.3-
    140405 703  0.5-  0.0     140405 958  0.1-  0.1-    140406 H21  0.5+  0.3-
    140405 703  0.3-  0.5+    140405 958  0.7+  0.2-    140406 926  0.1-  0.4-
    140405 703  0.1+  0.4-    140405 958  1.0+  0.3+    140406 926  0.2+  0.2-
    140405 703  0.2+  0.2-    140405 958  0.5+  0.1+    140406 926  0.3+  0.2-
    140405 703  0.4-  0.1+    140406 585  0.7-  1.1+    140406 G96  0.9-  0.1-
    140405 703  0.5-  0.1-    140406 585  0.7-  0.5+    140406 G96  0.4+  0.2-
    140405 703  0.5+  0.3+    140406 585  1.6-  1.1+    140406 G96  0.0   0.2-
    140405 703  0.5+  0.4+    140406 585  1.6-  1.2+    140406 G96  0.3+  0.1-
    140405 703  0.6+  0.4-    140406 585  1.4-  1.1+    140406 926  0.1+  0.3-
    140405 703  1.1+  0.0     140406 585  0.9-  1.0+    140406 926  0.1-  0.3-
    140405 703 (2.7+  0.8-)   140406 926  0.4+  0.2-    140406 926  0.0   0.1-
    140405 703  0.2-  0.2+    140406 926  0.3-  0.0
    140405 958  0.0   0.3-    140406 926  0.5+  0.1-
    
    Ephemeris:
    2014 GQ17                a,e,i = 0.85, 0.25, 0                   q = 0.6433
    Date    TT    R. A. (2000) Decl.     Delta      r     Elong.  Phase     V
    2014 03 07    22 39 09.5 -08 07 27   0.09025 0.9029     7.9   171.4
    ...
    2014 03 22    22 15 55.8 -09 08 08   0.04011 0.9612    28.6   150.3    28.6
    ...
    2014 03 30    21 28 35.8 -10 01 03   0.01602 0.9879    47.9   131.4    24.0
    ...
    2014 04 05    14 26 13.6 +00 02 23   0.0059061.0057   156.5    23.4    17.2
    2014 04 06    13 10 44.9 +03 24 56   0.0079871.0084   169.9    10.1    17.4
    2014 04 07    12 28 55.0 +05 08 05   0.01056 1.0111   165.6    14.3    18.2
    ...
    2014 04 13    11 17 27.1 +07 31 59   0.02825 1.0256   144.4    34.7    20.9
    ...
    2014 04 21    11 01 12.0 +07 44 33   0.05294 1.0415   132.8    45.0    22.6
    ...
    2014 05 06    11 01 15.9 +06 53 39   0.1003  1.0604   118.6    56.6    24.4
    
    A. U. Tomatic                (C) Copyright 2014 MPC           M.P.E.C. 2014-G31
    

    Read MPEC 2014-G30 Read MPEC 2014-G32


    MPEC number:

    Enter an MPEC number in one of the following forms:

    • 1997-B01 (the full form)
    • J97B01 (the packed version of the full form)
    • B01 (the abbreviated form)